LEMUR 2 TRUTNAHD

Last updated on Sat Apr 08 2017 00:15:05 GMT+0000 (Coordinated Universal Time)

1 42069U 98067LE 17096.95736748 .00023593 00000-0 34109-3 0 9995 2 42069 51.6436 33.1219 0008822 40.2582 319.9073 15.55765987 4899

Satellite not in orbit